Zurück zum Katalog

CZ-4 DEB

AktivSSO
NORAD 26756·DEBRIS·🇨🇳 China

Gestartet Oct 14, 1999 von Taiyuan Satellite Launch Center

Loading…

Nächste Überflüge (nächste 24 Stunden)

TLE

AktuellSource: Space-Track

Epoche: Sep 13, 2026, 02:13 UTC

1 26756U 99057MD  26256.09260448  .00000211  00000-0  77620-4 0  9990
2 26756  98.6879 305.0266 0081536 175.0999 185.1006 14.40917287336624

Verfolge CZ-4 DEB in Echtzeit mit AllMySat

Download on the App Store